Time,TemperatureF,DewpointF,PressureIn,WindDirection,WindDirectionDegrees,WindSpeedMPH,WindSpeedGustMPH,Humidity,HourlyPrecipIn,Conditions,Clouds,dailyrainin,SoftwareType,DateUTC
2013-01-08 00:00:00,38.5,29.6,29.96,North,5,0.0,8.0,70,0.00,,,0.00,Wunderground v.1.15,2013-01-08 07:00:00,
2013-01-08 00:06:00,38.4,29.5,29.96,North,5,0.0,8.0,70,0.00,,,0.00,Wunderground v.1.15,2013-01-08 07:06:00,
2013-01-08 00:12:00,38.3,29.4,29.97,North,5,0.0,8.0,70,0.00,,,0.00,Wunderground v.1.15,2013-01-08 07:12:00,
2013-01-08 00:18:00,38.1,29.5,29.98,ESE,120,0.0,8.0,71,0.00,,,0.00,Wunderground v.1.15,2013-01-08 07:18:00,
2013-01-08 00:24:00,37.9,29.3,29.98,ESE,121,1.0,8.0,71,0.00,,,0.00,Wunderground v.1.15,2013-01-08 07:24:00,
2013-01-08 00:30:00,37.8,29.2,29.98,ESE,121,0.0,8.0,71,0.00,,,0.00,Wunderground v.1.15,2013-01-08 07:30:00,
2013-01-08 00:36:00,37.8,29.2,29.97,SSE,153,0.0,8.0,71,0.00,,,0.00,Wunderground v.1.15,2013-01-08 07:36:00,
2013-01-08 00:42:00,37.7,29.5,29.98,SSE,154,0.0,8.0,72,0.00,,,0.00,Wunderground v.1.15,2013-01-08 07:42:00,
2013-01-08 00:48:00,37.4,29.5,29.97,SSE,154,0.0,8.0,73,0.00,,,0.00,Wunderground v.1.15,2013-01-08 07:48:00,
2013-01-08 00:54:00,37.2,29.3,29.98,SSE,154,0.0,8.0,73,0.00,,,0.00,Wunderground v.1.15,2013-01-08 07:54:00,
2013-01-08 01:00:00,36.8,29.3,29.97,SSE,154,0.0,8.0,74,0.00,,,0.00,Wunderground v.1.15,2013-01-08 08:00:00,
2013-01-08 01:06:00,36.6,29.4,29.98,SSE,154,0.0,8.0,75,0.00,,,0.00,Wunderground v.1.15,2013-01-08 08:06:00,
2013-01-08 01:12:00,36.4,29.6,29.98,SE,138,0.0,8.0,76,0.00,,,0.00,Wunderground v.1.15,2013-01-08 08:12:00,
2013-01-08 01:18:00,36.2,29.4,29.98,SE,125,0.0,8.0,76,0.00,,,0.00,Wunderground v.1.15,2013-01-08 08:18:00,
2013-01-08 01:24:00,36.2,29.0,29.98,SE,125,0.0,8.0,75,0.00,,,0.00,Wunderground v.1.15,2013-01-08 08:24:00,
2013-01-08 01:30:00,36.3,29.1,29.98,SE,124,0.0,8.0,75,0.00,,,0.00,Wunderground v.1.15,2013-01-08 08:30:00,
2013-01-08 01:36:00,36.4,28.9,29.99,SE,124,0.0,8.0,74,0.00,,,0.00,Wunderground v.1.15,2013-01-08 08:36:00,
2013-01-08 01:42:00,36.4,28.9,29.98,SE,124,0.0,8.0,74,0.00,,,0.00,Wunderground v.1.15,2013-01-08 08:42:00,
2013-01-08 01:48:00,36.6,28.8,29.98,ESE,114,0.0,8.0,73,0.00,,,0.00,Wunderground v.1.15,2013-01-08 08:48:00,
2013-01-08 01:54:00,36.7,28.9,29.98,ESE,115,0.0,8.0,73,0.00,,,0.00,Wunderground v.1.15,2013-01-08 08:54:00,
2013-01-08 02:00:00,36.6,28.8,29.98,ESE,117,0.0,8.0,73,0.00,,,0.00,Wunderground v.1.15,2013-01-08 09:00:00,
2013-01-08 02:06:00,36.6,28.4,29.97,ESE,117,0.0,8.0,72,0.00,,,0.00,Wunderground v.1.15,2013-01-08 09:06:00,
2013-01-08 02:12:00,36.8,28.6,29.97,ESE,117,0.0,8.0,72,0.00,,,0.00,Wunderground v.1.15,2013-01-08 09:12:00,
2013-01-08 02:18:00,36.7,28.5,29.98,ESE,117,0.0,8.0,72,0.00,,,0.00,Wunderground v.1.15,2013-01-08 09:18:00,
2013-01-08 02:24:00,36.5,28.3,29.98,ESE,117,0.0,8.0,72,0.00,,,0.00,Wunderground v.1.15,2013-01-08 09:24:00,
2013-01-08 02:30:00,36.2,28.4,29.98,ESE,117,0.0,8.0,73,0.00,,,0.00,Wunderground v.1.15,2013-01-08 09:30:00,
2013-01-08 02:36:00,36.0,28.8,29.99,ESE,117,0.0,8.0,75,0.00,,,0.00,Wunderground v.1.15,2013-01-08 09:36:00,
2013-01-08 02:42:00,35.8,28.6,29.99,ESE,117,0.0,8.0,75,0.00,,,0.00,Wunderground v.1.15,2013-01-08 09:42:00,
2013-01-08 02:48:00,35.6,28.5,29.98,ESE,117,0.0,8.0,75,0.00,,,0.00,Wunderground v.1.15,2013-01-08 09:48:00,
2013-01-08 02:54:00,35.2,28.4,29.98,ESE,117,0.0,8.0,76,0.00,,,0.00,Wunderground v.1.15,2013-01-08 09:54:00,
2013-01-08 03:00:00,35.1,28.3,29.98,ESE,117,0.0,8.0,76,0.00,,,0.00,Wunderground v.1.15,2013-01-08 10:00:00,
2013-01-08 03:06:00,34.9,28.4,29.99,ESE,117,0.0,8.0,77,0.00,,,0.00,Wunderground v.1.15,2013-01-08 10:06:00,
2013-01-08 03:12:00,34.7,28.2,29.99,ESE,117,0.0,8.0,77,0.00,,,0.00,Wunderground v.1.15,2013-01-08 10:12:00,
2013-01-08 03:18:00,34.5,28.3,29.99,ESE,117,0.0,8.0,78,0.00,,,0.00,Wunderground v.1.15,2013-01-08 10:18:00,
2013-01-08 03:24:00,34.4,28.6,29.99,ESE,117,0.0,8.0,79,0.00,,,0.00,Wunderground v.1.15,2013-01-08 10:24:00,
2013-01-08 03:30:00,34.6,28.4,30.00,ESE,117,0.0,8.0,78,0.00,,,0.00,Wunderground v.1.15,2013-01-08 10:30:00,
2013-01-08 03:36:00,34.4,28.2,30.00,ESE,117,0.0,8.0,78,0.00,,,0.00,Wunderground v.1.15,2013-01-08 10:36:00,
2013-01-08 03:42:00,34.3,28.8,29.99,ESE,117,0.0,8.0,80,0.00,,,0.00,Wunderground v.1.15,2013-01-08 10:42:00,
2013-01-08 03:48:00,34.3,28.5,30.00,ESE,117,0.0,8.0,79,0.00,,,0.00,Wunderground v.1.15,2013-01-08 10:48:00,
2013-01-08 03:54:00,34.2,28.4,29.99,ESE,117,0.0,8.0,79,0.00,,,0.00,Wunderground v.1.15,2013-01-08 10:54:00,
2013-01-08 04:00:00,34.0,28.5,29.99,ESE,117,0.0,8.0,80,0.00,,,0.00,Wunderground v.1.15,2013-01-08 11:00:00,
2013-01-08 04:06:00,33.9,28.4,29.99,ESE,117,0.0,8.0,80,0.00,,,0.00,Wunderground v.1.15,2013-01-08 11:06:00,
2013-01-08 04:12:00,33.8,28.3,29.99,ESE,117,0.0,8.0,80,0.00,,,0.00,Wunderground v.1.15,2013-01-08 11:12:00,
2013-01-08 04:18:00,33.8,28.3,29.99,ESE,117,0.0,8.0,80,0.00,,,0.00,Wunderground v.1.15,2013-01-08 11:18:00,
2013-01-08 04:24:00,33.9,28.4,29.99,ESE,117,0.0,8.0,80,0.00,,,0.00,Wunderground v.1.15,2013-01-08 11:24:00,
2013-01-08 04:30:00,33.9,28.4,29.99,ESE,117,0.0,8.0,80,0.00,,,0.00,Wunderground v.1.15,2013-01-08 11:30:00,
2013-01-08 04:36:00,33.8,28.3,29.99,ESE,117,0.0,8.0,80,0.00,,,0.00,Wunderground v.1.15,2013-01-08 11:36:00,
2013-01-08 04:42:00,33.6,28.1,29.99,ESE,117,0.0,8.0,80,0.00,,,0.00,Wunderground v.1.15,2013-01-08 11:42:00,
2013-01-08 04:48:00,33.3,28.1,29.99,ESE,117,0.0,8.0,81,0.00,,,0.00,Wunderground v.1.15,2013-01-08 11:48:00,
2013-01-08 04:54:00,33.1,28.2,29.99,ESE,117,0.0,8.0,82,0.00,,,0.00,Wunderground v.1.15,2013-01-08 11:54:00,
2013-01-08 05:00:00,32.9,28.0,29.98,ESE,117,0.0,8.0,82,0.00,,,0.00,Wunderground v.1.15,2013-01-08 12:00:00,
2013-01-08 05:06:00,32.8,27.9,29.98,ESE,117,0.0,8.0,82,0.00,,,0.00,Wunderground v.1.15,2013-01-08 12:06:00,
2013-01-08 05:12:00,32.8,28.2,29.98,ESE,117,0.0,8.0,83,0.00,,,0.00,Wunderground v.1.15,2013-01-08 12:12:00,
2013-01-08 05:18:00,32.8,28.2,29.98,ESE,117,0.0,8.0,83,0.00,,,0.00,Wunderground v.1.15,2013-01-08 12:18:00,
2013-01-08 05:24:00,32.7,28.1,29.98,ESE,117,0.0,8.0,83,0.00,,,0.00,Wunderground v.1.15,2013-01-08 12:24:00,
2013-01-08 05:30:00,32.8,28.2,29.98,ESE,117,0.0,8.0,83,0.00,,,0.00,Wunderground v.1.15,2013-01-08 12:30:00,
2013-01-08 05:36:00,32.6,28.0,29.99,ESE,117,0.0,8.0,83,0.00,,,0.00,Wunderground v.1.15,2013-01-08 12:36:00,
2013-01-08 05:42:00,32.5,27.9,29.99,ESE,117,0.0,8.0,83,0.00,,,0.00,Wunderground v.1.15,2013-01-08 12:42:00,
2013-01-08 05:48:00,32.4,27.8,29.99,ESE,117,0.0,8.0,83,0.00,,,0.00,Wunderground v.1.15,2013-01-08 12:48:00,
2013-01-08 05:54:00,32.4,27.8,30.00,ESE,117,0.0,8.0,83,0.00,,,0.00,Wunderground v.1.15,2013-01-08 12:54:00,
2013-01-08 06:00:00,32.3,28.0,30.01,ESE,117,0.0,8.0,84,0.00,,,0.00,Wunderground v.1.15,2013-01-08 13:00:00,
2013-01-08 06:06:00,32.3,28.0,30.01,ESE,117,0.0,8.0,84,0.00,,,0.00,Wunderground v.1.15,2013-01-08 13:06:00,
2013-01-08 06:12:00,32.1,27.8,30.01,ESE,117,0.0,8.0,84,0.00,,,0.00,Wunderground v.1.15,2013-01-08 13:12:00,
2013-01-08 06:18:00,31.9,27.6,30.01,ESE,117,0.0,8.0,84,0.00,,,0.00,Wunderground v.1.15,2013-01-08 13:18:00,
2013-01-08 06:24:00,31.9,27.6,30.02,ESE,117,0.0,8.0,84,0.00,,,0.00,Wunderground v.1.15,2013-01-08 13:24:00,
2013-01-08 06:30:00,31.8,27.8,30.02,ESE,117,0.0,8.0,85,0.00,,,0.00,Wunderground v.1.15,2013-01-08 13:30:00,
2013-01-08 06:36:00,31.6,27.6,30.03,ESE,117,0.0,8.0,85,0.00,,,0.00,Wunderground v.1.15,2013-01-08 13:36:00,
2013-01-08 06:42:00,31.6,27.6,30.03,ESE,118,0.0,0.0,85,0.00,,,0.00,Wunderground v.1.15,2013-01-08 13:42:00,
2013-01-08 06:48:00,31.6,27.6,30.03,ESE,117,0.0,0.0,85,0.00,,,0.00,Wunderground v.1.15,2013-01-08 13:48:00,
2013-01-08 06:54:00,31.6,27.6,30.04,ESE,118,0.0,0.0,85,0.00,,,0.00,Wunderground v.1.15,2013-01-08 13:54:00,
2013-01-08 07:00:00,31.6,27.6,30.04,ESE,118,0.0,0.0,85,0.00,,,0.00,Wunderground v.1.15,2013-01-08 14:00:00,
2013-01-08 07:06:00,31.6,27.6,30.04,ESE,118,0.0,0.0,85,0.00,,,0.00,Wunderground v.1.15,2013-01-08 14:06:00,
2013-01-08 07:12:00,31.5,27.5,30.04,ESE,118,0.0,0.0,85,0.00,,,0.00,Wunderground v.1.15,2013-01-08 14:12:00,
2013-01-08 07:18:00,31.4,27.7,30.05,ESE,118,0.0,0.0,86,0.00,,,0.00,Wunderground v.1.15,2013-01-08 14:18:00,
2013-01-08 07:24:00,31.5,27.8,30.05,ESE,118,0.0,0.0,86,0.00,,,0.00,Wunderground v.1.15,2013-01-08 14:24:00,
2013-01-08 07:30:00,31.6,28.2,30.05,ESE,118,0.0,0.0,87,0.00,,,0.00,Wunderground v.1.15,2013-01-08 14:30:00,
2013-01-08 07:36:00,31.6,27.9,30.05,ESE,118,0.0,0.0,86,0.00,,,0.00,Wunderground v.1.15,2013-01-08 14:36:00,
2013-01-08 07:42:00,31.6,27.9,30.06,ESE,118,0.0,0.0,86,0.00,,,0.00,Wunderground v.1.15,2013-01-08 14:42:00,
2013-01-08 07:48:00,31.9,28.2,30.06,ESE,118,0.0,0.0,86,0.00,,,0.00,Wunderground v.1.15,2013-01-08 14:48:00,
2013-01-08 07:54:00,32.3,28.3,30.07,ESE,118,0.0,0.0,85,0.00,,,0.00,Wunderground v.1.15,2013-01-08 14:54:00,
2013-01-08 08:00:00,32.8,28.5,30.07,ESE,118,0.0,0.0,84,0.00,,,0.00,Wunderground v.1.15,2013-01-08 15:00:00,
2013-01-08 08:06:00,33.5,28.9,30.07,ESE,118,0.0,0.0,83,0.00,,,0.00,Wunderground v.1.15,2013-01-08 15:06:00,
2013-01-08 08:12:00,34.8,29.0,30.08,ESE,118,0.0,0.0,79,0.00,,,0.00,Wunderground v.1.15,2013-01-08 15:12:00,
2013-01-08 08:18:00,35.5,29.3,30.08,SSW,202,0.0,1.0,78,0.00,,,0.00,Wunderground v.1.15,2013-01-08 15:18:00,
2013-01-08 08:24:00,36.1,29.3,30.08,SSW,202,0.0,0.0,76,0.00,,,0.00,Wunderground v.1.15,2013-01-08 15:24:00,
2013-01-08 08:30:00,37.1,29.6,30.09,SSW,202,0.0,0.0,74,0.00,,,0.00,Wunderground v.1.15,2013-01-08 15:30:00,
2013-01-08 08:36:00,38.6,30.0,30.09,SSW,202,0.0,0.0,71,0.00,,,0.00,Wunderground v.1.15,2013-01-08 15:36:00,
2013-01-08 08:42:00,39.9,29.8,30.09,SE,142,0.0,0.0,67,0.00,,,0.00,Wunderground v.1.15,2013-01-08 15:42:00,
2013-01-08 08:48:00,40.6,30.1,30.10,SE,129,1.0,2.0,66,0.00,,,0.00,Wunderground v.1.15,2013-01-08 15:48:00,
2013-01-08 08:54:00,40.6,30.5,30.10,ESE,117,1.0,1.0,67,0.00,,,0.00,Wunderground v.1.15,2013-01-08 15:54:00,
2013-01-08 09:00:00,40.9,30.8,30.10,ESE,115,0.0,2.0,67,0.00,,,0.00,Wunderground v.1.15,2013-01-08 16:00:00,
2013-01-08 09:06:00,41.3,30.8,30.10,ESE,113,1.0,2.0,66,0.00,,,0.00,Wunderground v.1.15,2013-01-08 16:06:00,
2013-01-08 09:12:00,42.0,30.7,30.10,ESE,123,1.0,1.0,64,0.00,,,0.00,Wunderground v.1.15,2013-01-08 16:12:00,
2013-01-08 09:18:00,42.7,30.6,30.10,ESE,107,1.0,3.0,62,0.00,,,0.00,Wunderground v.1.15,2013-01-08 16:18:00,
2013-01-08 09:24:00,43.4,30.8,30.10,ESE,113,2.0,2.0,61,0.00,,,0.00,Wunderground v.1.15,2013-01-08 16:24:00,
2013-01-08 09:30:00,44.0,30.6,30.10,ESE,108,1.0,1.0,59,0.00,,,0.00,Wunderground v.1.15,2013-01-08 16:30:00,
2013-01-08 09:36:00,44.7,30.8,30.10,SE,126,1.0,3.0,58,0.00,,,0.00,Wunderground v.1.15,2013-01-08 16:36:00,
2013-01-08 09:42:00,45.4,31.0,30.11,East,98,1.0,1.0,57,0.00,,,0.00,Wunderground v.1.15,2013-01-08 16:42:00,
2013-01-08 09:48:00,46.0,30.7,30.11,ESE,113,0.0,2.0,55,0.00,,,0.00,Wunderground v.1.15,2013-01-08 16:48:00,
2013-01-08 09:54:00,46.5,30.7,30.11,ESE,113,1.0,1.0,54,0.00,,,0.00,Wunderground v.1.15,2013-01-08 16:54:00,
2013-01-08 10:00:00,47.0,31.2,30.11,ESE,110,0.0,1.0,54,0.00,,,0.00,Wunderground v.1.15,2013-01-08 17:00:00,
2013-01-08 10:06:00,47.6,30.8,30.11,ESE,110,0.0,1.0,52,0.00,,,0.00,Wunderground v.1.15,2013-01-08 17:06:00,
2013-01-08 10:12:00,48.2,30.9,30.11,ESE,114,0.0,2.0,51,0.00,,,0.00,Wunderground v.1.15,2013-01-08 17:12:00,
2013-01-08 10:18:00,48.7,30.9,30.11,SE,135,1.0,3.0,50,0.00,,,0.00,Wunderground v.1.15,2013-01-08 17:18:00,
2013-01-08 10:24:00,49.2,30.3,30.12,ESE,105,1.0,3.0,48,0.00,,,0.00,Wunderground v.1.15,2013-01-08 17:24:00,
2013-01-08 10:30:00,49.4,30.0,30.12,East,80,0.0,2.0,47,0.00,,,0.00,Wunderground v.1.15,2013-01-08 17:30:00,
2013-01-08 10:36:00,49.8,30.4,30.12,East,84,0.0,2.0,47,0.00,,,0.00,Wunderground v.1.15,2013-01-08 17:36:00,
2013-01-08 10:42:00,50.5,30.5,30.12,South,173,1.0,2.0,46,0.00,,,0.00,Wunderground v.1.15,2013-01-08 17:42:00,
2013-01-08 10:48:00,50.6,30.0,30.12,South,173,1.0,2.0,45,0.00,,,0.00,Wunderground v.1.15,2013-01-08 17:48:00,
2013-01-08 10:54:00,51.4,30.2,30.12,SE,144,1.0,3.0,44,0.00,,,0.00,Wunderground v.1.15,2013-01-08 17:54:00,
2013-01-08 11:00:00,51.7,29.9,30.12,SE,136,1.0,1.0,43,0.00,,,0.00,Wunderground v.1.15,2013-01-08 18:00:00,
2013-01-08 11:06:00,51.7,29.3,30.12,ESE,115,1.0,1.0,42,0.00,,,0.00,Wunderground v.1.15,2013-01-08 18:06:00,
2013-01-08 11:12:00,51.3,29.5,30.11,ENE,61,1.0,3.0,43,0.00,,,0.00,Wunderground v.1.15,2013-01-08 18:12:00,
2013-01-08 11:18:00,51.0,29.3,30.12,NNE,31,1.0,3.0,43,0.00,,,0.00,Wunderground v.1.15,2013-01-08 18:18:00,
2013-01-08 11:24:00,51.1,29.4,30.12,SSW,208,1.0,1.0,43,0.00,,,0.00,Wunderground v.1.15,2013-01-08 18:24:00,
2013-01-08 11:30:00,51.6,29.2,30.11,NE,39,1.0,1.0,42,0.00,,,0.00,Wunderground v.1.15,2013-01-08 18:30:00,
2013-01-08 11:36:00,51.9,29.5,30.11,West,281,1.0,2.0,42,0.00,,,0.00,Wunderground v.1.15,2013-01-08 18:36:00,
2013-01-08 11:42:00,52.0,29.0,30.10,WNW,290,2.0,3.0,41,0.00,,,0.00,Wunderground v.1.15,2013-01-08 18:42:00,
2013-01-08 11:48:00,52.1,28.5,30.10,West,277,3.0,5.0,40,0.00,,,0.00,Wunderground v.1.15,2013-01-08 18:48:00,
2013-01-08 11:54:00,52.6,28.9,30.10,ESE,113,2.0,3.0,40,0.00,,,0.00,Wunderground v.1.15,2013-01-08 18:54:00,
2013-01-08 12:00:00,53.3,28.9,30.10,ESE,123,1.0,1.0,39,0.00,,,0.00,Wunderground v.1.15,2013-01-08 19:00:00,
2013-01-08 12:06:00,53.4,29.0,30.10,NW,315,1.0,4.0,39,0.00,,,0.00,Wunderground v.1.15,2013-01-08 19:06:00,
2013-01-08 12:12:00,53.3,28.9,30.09,WSW,241,2.0,2.0,39,0.00,,,0.00,Wunderground v.1.15,2013-01-08 19:12:00,
2013-01-08 12:18:00,53.8,28.8,30.09,NW,317,1.0,5.0,38,0.00,,,0.00,Wunderground v.1.15,2013-01-08 19:18:00,
2013-01-08 12:24:00,53.7,28.7,30.09,NW,307,2.0,2.0,38,0.00,,,0.00,Wunderground v.1.15,2013-01-08 19:24:00,
2013-01-08 12:30:00,54.0,28.9,30.09,NE,38,1.0,1.0,38,0.00,,,0.00,Wunderground v.1.15,2013-01-08 19:30:00,
2013-01-08 12:36:00,54.7,29.6,30.08,East,90,0.0,3.0,38,0.00,,,0.00,Wunderground v.1.15,2013-01-08 19:36:00,
2013-01-08 12:42:00,55.0,29.2,30.08,East,90,2.0,2.0,37,0.00,,,0.00,Wunderground v.1.15,2013-01-08 19:42:00,
2013-01-08 12:48:00,55.3,28.8,30.08,ENE,74,2.0,4.0,36,0.00,,,0.00,Wunderground v.1.15,2013-01-08 19:48:00,
2013-01-08 12:54:00,55.4,28.9,30.07,NE,38,1.0,2.0,36,0.00,,,0.00,Wunderground v.1.15,2013-01-08 19:54:00,
2013-01-08 13:00:00,56.0,29.4,30.07,ENE,72,1.0,1.0,36,0.00,,,0.00,Wunderground v.1.15,2013-01-08 20:00:00,
2013-01-08 13:06:00,56.0,28.7,30.07,ENE,65,1.0,3.0,35,0.00,,,0.00,Wunderground v.1.15,2013-01-08 20:06:00,
2013-01-08 13:12:00,56.6,28.5,30.07,North,355,1.0,1.0,34,0.00,,,0.00,Wunderground v.1.15,2013-01-08 20:12:00,
2013-01-08 13:18:00,57.2,29.1,30.07,West,269,0.0,4.0,34,0.00,,,0.00,Wunderground v.1.15,2013-01-08 20:18:00,
2013-01-08 13:24:00,57.3,29.1,30.07,WSW,238,1.0,1.0,34,0.00,,,0.00,Wunderground v.1.15,2013-01-08 20:24:00,
2013-01-08 13:30:00,57.5,29.3,30.06,WNW,294,1.0,2.0,34,0.00,,,0.00,Wunderground v.1.15,2013-01-08 20:30:00,
2013-01-08 13:36:00,57.5,28.6,30.06,SW,223,2.0,3.0,33,0.00,,,0.00,Wunderground v.1.15,2013-01-08 20:36:00,
2013-01-08 13:42:00,57.1,28.2,30.06,West,273,2.0,4.0,33,0.00,,,0.00,Wunderground v.1.15,2013-01-08 20:42:00,
2013-01-08 13:48:00,57.3,28.4,30.06,West,276,2.0,5.0,33,0.00,,,0.00,Wunderground v.1.15,2013-01-08 20:48:00,
2013-01-08 13:54:00,57.3,28.4,30.06,WNW,290,3.0,4.0,33,0.00,,,0.00,Wunderground v.1.15,2013-01-08 20:54:00,
2013-01-08 14:00:00,57.3,28.4,30.06,North,355,3.0,3.0,33,0.00,,,0.00,Wunderground v.1.15,2013-01-08 21:00:00,
2013-01-08 14:06:00,57.6,28.7,30.06,North,5,2.0,3.0,33,0.00,,,0.00,Wunderground v.1.15,2013-01-08 21:06:00,
2013-01-08 14:12:00,58.2,28.5,30.06,NE,50,1.0,3.0,32,0.00,,,0.00,Wunderground v.1.15,2013-01-08 21:12:00,
2013-01-08 14:18:00,58.3,29.3,30.06,NNW,328,1.0,3.0,33,0.00,,,0.00,Wunderground v.1.15,2013-01-08 21:18:00,
2013-01-08 14:24:00,59.1,29.2,30.06,NE,47,1.0,1.0,32,0.00,,,0.00,Wunderground v.1.15,2013-01-08 21:24:00,
2013-01-08 14:30:00,59.8,29.1,30.06,NE,52,0.0,1.0,31,0.00,,,0.00,Wunderground v.1.15,2013-01-08 21:30:00,
2013-01-08 14:36:00,59.6,28.9,30.06,ENE,57,1.0,2.0,31,0.00,,,0.00,Wunderground v.1.15,2013-01-08 21:36:00,
2013-01-08 14:42:00,59.4,28.7,30.06,SE,127,2.0,2.0,31,0.00,,,0.00,Wunderground v.1.15,2013-01-08 21:42:00,
2013-01-08 14:48:00,59.4,28.7,30.05,ENE,63,2.0,2.0,31,0.00,,,0.00,Wunderground v.1.15,2013-01-08 21:48:00,
2013-01-08 14:54:00,59.4,28.7,30.05,East,80,2.0,2.0,31,0.00,,,0.00,Wunderground v.1.15,2013-01-08 21:54:00,
2013-01-08 15:00:00,59.9,28.4,30.05,NE,54,2.0,2.0,30,0.00,,,0.00,Wunderground v.1.15,2013-01-08 22:00:00,
2013-01-08 15:06:00,60.3,27.9,30.05,NE,52,1.0,5.0,29,0.00,,,0.00,Wunderground v.1.15,2013-01-08 22:06:00,
2013-01-08 15:12:00,60.1,27.7,30.06,ENE,65,2.0,2.0,29,0.00,,,0.00,Wunderground v.1.15,2013-01-08 22:12:00,
2013-01-08 15:18:00,60.2,27.8,30.06,NNW,338,2.0,3.0,29,0.00,,,0.00,Wunderground v.1.15,2013-01-08 22:18:00,
2013-01-08 15:24:00,60.3,27.9,30.06,NNW,344,1.0,1.0,29,0.00,,,0.00,Wunderground v.1.15,2013-01-08 22:24:00,
2013-01-08 15:30:00,60.7,28.2,30.06,NW,318,1.0,2.0,29,0.00,,,0.00,Wunderground v.1.15,2013-01-08 22:30:00,
2013-01-08 15:36:00,61.1,27.7,30.06,North,351,1.0,2.0,28,0.00,,,0.00,Wunderground v.1.15,2013-01-08 22:36:00,
2013-01-08 15:42:00,61.4,28.8,30.05,NNE,21,1.0,1.0,29,0.00,,,0.00,Wunderground v.1.15,2013-01-08 22:42:00,
2013-01-08 15:48:00,61.4,28.0,30.06,NNW,333,2.0,3.0,28,0.00,,,0.00,Wunderground v.1.15,2013-01-08 22:48:00,
2013-01-08 15:54:00,61.1,27.7,30.05,NW,317,3.0,6.0,28,0.00,,,0.00,Wunderground v.1.15,2013-01-08 22:54:00,
2013-01-08 16:00:00,60.8,27.5,30.05,NNW,332,4.0,5.0,28,0.00,,,0.00,Wunderground v.1.15,2013-01-08 23:00:00,
2013-01-08 16:06:00,60.7,27.4,30.05,NW,307,4.0,5.0,28,0.00,,,0.00,Wunderground v.1.15,2013-01-08 23:06:00,
2013-01-08 16:12:00,60.5,27.2,30.05,NW,325,4.0,6.0,28,0.00,,,0.00,Wunderground v.1.15,2013-01-08 23:12:00,
2013-01-08 16:18:00,60.4,27.1,30.05,WNW,298,5.0,6.0,28,0.00,,,0.00,Wunderground v.1.15,2013-01-08 23:18:00,
2013-01-08 16:24:00,60.3,27.9,30.05,NW,310,5.0,6.0,29,0.00,,,0.00,Wunderground v.1.15,2013-01-08 23:24:00,
2013-01-08 16:30:00,60.2,26.9,30.05,WNW,289,5.0,5.0,28,0.00,,,0.00,Wunderground v.1.15,2013-01-08 23:30:00,
2013-01-08 16:36:00,60.1,26.9,30.05,NW,304,4.0,8.0,28,0.00,,,0.00,Wunderground v.1.15,2013-01-08 23:36:00,
2013-01-08 16:42:00,60.0,26.8,30.05,NW,306,4.0,6.0,28,0.00,,,0.00,Wunderground v.1.15,2013-01-08 23:42:00,
2013-01-08 16:48:00,59.8,26.6,30.05,NW,304,5.0,7.0,28,0.00,,,0.00,Wunderground v.1.15,2013-01-08 23:48:00,
2013-01-08 16:54:00,59.9,25.8,30.05,WNW,301,5.0,5.0,27,0.00,,,0.00,Wunderground v.1.15,2013-01-08 23:54:00,
2013-01-08 17:00:00,59.9,25.8,30.05,WNW,288,5.0,7.0,27,0.00,,,0.00,Wunderground v.1.15,2013-01-09 00:00:00,
2013-01-08 17:06:00,59.6,24.6,30.05,NW,313,5.0,7.0,26,0.00,,,0.00,Wunderground v.1.15,2013-01-09 00:06:00,
2013-01-08 17:12:00,59.4,24.5,30.05,WNW,294,4.0,7.0,26,0.00,,,0.00,Wunderground v.1.15,2013-01-09 00:12:00,
2013-01-08 17:18:00,59.1,24.2,30.05,NW,317,4.0,7.0,26,0.00,,,0.00,Wunderground v.1.15,2013-01-09 00:18:00,
2013-01-08 17:24:00,58.7,24.8,30.06,NNW,333,3.0,4.0,27,0.00,,,0.00,Wunderground v.1.15,2013-01-09 00:24:00,
2013-01-08 17:30:00,58.3,25.3,30.05,West,276,1.0,1.0,28,0.00,,,0.00,Wunderground v.1.15,2013-01-09 00:30:00,
2013-01-08 17:36:00,57.8,25.7,30.05,WNW,296,1.0,1.0,29,0.00,,,0.00,Wunderground v.1.15,2013-01-09 00:36:00,
2013-01-08 17:42:00,57.2,25.2,30.05,West,281,1.0,2.0,29,0.00,,,0.00,Wunderground v.1.15,2013-01-09 00:42:00,
2013-01-08 17:48:00,56.7,25.6,30.05,WNW,292,2.0,2.0,30,0.00,,,0.00,Wunderground v.1.15,2013-01-09 00:48:00,
2013-01-08 17:54:00,56.4,25.3,30.05,NW,314,3.0,4.0,30,0.00,,,0.00,Wunderground v.1.15,2013-01-09 00:54:00,
2013-01-08 18:00:00,56.3,25.2,30.06,NW,304,3.0,3.0,30,0.00,,,0.00,Wunderground v.1.15,2013-01-09 01:00:00,
2013-01-08 18:06:00,56.1,25.1,30.06,NW,308,2.0,4.0,30,0.00,,,0.00,Wunderground v.1.15,2013-01-09 01:06:00,
2013-01-08 18:12:00,55.9,24.9,30.07,NNW,331,1.0,1.0,30,0.00,,,0.00,Wunderground v.1.15,2013-01-09 01:12:00,
2013-01-08 18:18:00,55.3,25.1,30.07,NNW,329,0.0,1.0,31,0.00,,,0.00,Wunderground v.1.15,2013-01-09 01:18:00,
2013-01-08 18:24:00,54.9,24.8,30.07,NNW,329,0.0,0.0,31,0.00,,,0.00,Wunderground v.1.15,2013-01-09 01:24:00,
2013-01-08 18:30:00,54.3,25.0,30.07,NW,321,0.0,0.0,32,0.00,,,0.00,Wunderground v.1.15,2013-01-09 01:30:00,
2013-01-08 18:36:00,54.0,24.8,30.07,NW,306,1.0,2.0,32,0.00,,,0.00,Wunderground v.1.15,2013-01-09 01:36:00,
2013-01-08 18:42:00,54.2,24.9,30.08,NW,318,1.0,4.0,32,0.00,,,0.00,Wunderground v.1.15,2013-01-09 01:42:00,
2013-01-08 18:48:00,54.2,24.9,30.08,NW,320,2.0,4.0,32,0.00,,,0.00,Wunderground v.1.15,2013-01-09 01:48:00,
2013-01-08 18:54:00,54.1,24.9,30.09,NW,305,2.0,6.0,32,0.00,,,0.00,Wunderground v.1.15,2013-01-09 01:54:00,
2013-01-08 19:00:00,54.1,24.9,30.09,West,279,2.0,3.0,32,0.00,,,0.00,Wunderground v.1.15,2013-01-09 02:00:00,
2013-01-08 19:06:00,54.1,24.9,30.09,WNW,295,2.0,4.0,32,0.00,,,0.00,Wunderground v.1.15,2013-01-09 02:06:00,
2013-01-08 19:12:00,53.9,24.7,30.09,NW,319,1.0,2.0,32,0.00,,,0.00,Wunderground v.1.15,2013-01-09 02:12:00,
2013-01-08 19:18:00,53.6,25.2,30.10,NW,317,0.0,3.0,33,0.00,,,0.00,Wunderground v.1.15,2013-01-09 02:18:00,
2013-01-08 19:24:00,53.3,24.9,30.10,NW,308,1.0,3.0,33,0.00,,,0.00,Wunderground v.1.15,2013-01-09 02:24:00,
2013-01-08 19:30:00,53.2,24.8,30.10,WNW,300,3.0,3.0,33,0.00,,,0.00,Wunderground v.1.15,2013-01-09 02:30:00,
2013-01-08 19:36:00,53.0,24.6,30.10,NW,309,3.0,3.0,33,0.00,,,0.00,Wunderground v.1.15,2013-01-09 02:36:00,
2013-01-08 19:42:00,53.0,24.6,30.10,WNW,299,2.0,2.0,33,0.00,,,0.00,Wunderground v.1.15,2013-01-09 02:42:00,
2013-01-08 19:48:00,52.6,25.0,30.10,WNW,296,0.0,2.0,34,0.00,,,0.00,Wunderground v.1.15,2013-01-09 02:48:00,
2013-01-08 19:54:00,52.0,25.2,30.10,WSW,248,0.0,1.0,35,0.00,,,0.00,Wunderground v.1.15,2013-01-09 02:54:00,
2013-01-08 20:00:00,51.5,24.7,30.10,WSW,246,1.0,3.0,35,0.00,,,0.00,Wunderground v.1.15,2013-01-09 03:00:00,
2013-01-08 20:06:00,51.3,25.2,30.10,SSW,213,1.0,5.0,36,0.00,,,0.00,Wunderground v.1.15,2013-01-09 03:06:00,
2013-01-08 20:12:00,51.2,25.1,30.11,SW,225,1.0,1.0,36,0.00,,,0.00,Wunderground v.1.15,2013-01-09 03:12:00,
2013-01-08 20:18:00,51.1,24.4,30.11,SW,227,1.0,2.0,35,0.00,,,0.00,Wunderground v.1.15,2013-01-09 03:18:00,
2013-01-08 20:24:00,51.1,24.4,30.11,WSW,237,2.0,3.0,35,0.00,,,0.00,Wunderground v.1.15,2013-01-09 03:24:00,
2013-01-08 20:30:00,51.0,24.3,30.11,WSW,241,1.0,1.0,35,0.00,,,0.00,Wunderground v.1.15,2013-01-09 03:30:00,
2013-01-08 20:36:00,50.9,24.2,30.11,West,268,1.0,2.0,35,0.00,,,0.00,Wunderground v.1.15,2013-01-09 03:36:00,
2013-01-08 20:42:00,50.9,24.2,30.12,West,268,1.0,1.0,35,0.00,,,0.00,Wunderground v.1.15,2013-01-09 03:42:00,
2013-01-08 20:48:00,50.6,23.9,30.12,West,266,1.0,3.0,35,0.00,,,0.00,Wunderground v.1.15,2013-01-09 03:48:00,
2013-01-08 20:54:00,50.3,24.3,30.12,West,269,3.0,6.0,36,0.00,,,0.00,Wunderground v.1.15,2013-01-09 03:54:00,
2013-01-08 21:00:00,50.3,24.3,30.12,West,260,4.0,4.0,36,0.00,,,0.00,Wunderground v.1.15,2013-01-09 04:00:00,
2013-01-08 21:06:00,50.8,24.1,30.13,West,266,5.0,5.0,35,0.00,,,0.00,Wunderground v.1.15,2013-01-09 04:06:00,
2013-01-08 21:12:00,50.6,24.6,30.13,WNW,296,4.0,5.0,36,0.00,,,0.00,Wunderground v.1.15,2013-01-09 04:12:00,
2013-01-08 21:18:00,50.3,25.0,30.13,WNW,299,3.0,5.0,37,0.00,,,0.00,Wunderground v.1.15,2013-01-09 04:18:00,
2013-01-08 21:24:00,50.1,25.5,30.14,WNW,296,2.0,2.0,38,0.00,,,0.00,Wunderground v.1.15,2013-01-09 04:24:00,
2013-01-08 21:30:00,49.7,25.1,30.14,West,281,1.0,2.0,38,0.00,,,0.00,Wunderground v.1.15,2013-01-09 04:30:00,
2013-01-08 21:36:00,49.1,25.2,30.14,WNW,292,1.0,2.0,39,0.00,,,0.00,Wunderground v.1.15,2013-01-09 04:36:00,
2013-01-08 21:42:00,48.8,25.5,30.14,WNW,284,1.0,1.0,40,0.00,,,0.00,Wunderground v.1.15,2013-01-09 04:42:00,
2013-01-08 21:48:00,48.2,26.2,30.14,WNW,293,0.0,1.0,42,0.00,,,0.00,Wunderground v.1.15,2013-01-09 04:48:00,
2013-01-08 21:54:00,47.5,26.1,30.14,WNW,293,0.0,0.0,43,0.00,,,0.00,Wunderground v.1.15,2013-01-09 04:54:00,
2013-01-08 22:02:00,46.5,26.8,30.14,WNW,293,0.0,0.0,46,0.00,,,0.00,Wunderground v.1.15,2013-01-09 05:02:00,
2013-01-08 22:08:00,45.9,26.8,30.14,WNW,293,0.0,0.0,47,0.00,,,0.00,Wunderground v.1.15,2013-01-09 05:08:00,
2013-01-08 22:10:00,45.6,26.5,30.14,WNW,293,0.0,0.0,47,0.00,,,0.00,Wunderground v.1.15,2013-01-09 05:10:00,
2013-01-08 22:16:00,44.7,26.7,30.14,WNW,293,0.0,0.0,49,0.00,,,0.00,Wunderground v.1.15,2013-01-09 05:16:00,
2013-01-08 22:22:00,44.0,27.0,30.14,NNE,23,0.0,1.0,51,0.00,,,0.00,Wunderground v.1.15,2013-01-09 05:22:00,
2013-01-08 22:28:00,43.6,27.1,30.14,NE,45,0.0,1.0,52,0.00,,,0.00,Wunderground v.1.15,2013-01-09 05:28:00,
2013-01-08 22:34:00,43.5,27.5,30.14,East,89,0.0,2.0,53,0.00,,,0.00,Wunderground v.1.15,2013-01-09 05:34:00,
2013-01-08 22:40:00,43.3,27.3,30.15,East,89,0.0,0.0,53,0.00,,,0.00,Wunderground v.1.15,2013-01-09 05:40:00,
2013-01-08 22:46:00,42.9,27.4,30.15,East,89,0.0,0.0,54,0.00,,,0.00,Wunderground v.1.15,2013-01-09 05:46:00,
2013-01-08 22:52:00,42.6,27.5,30.15,East,89,0.0,0.0,55,0.00,,,0.00,Wunderground v.1.15,2013-01-09 05:52:00,
2013-01-08 22:58:00,42.2,27.6,30.15,East,89,0.0,0.0,56,0.00,,,0.00,Wunderground v.1.15,2013-01-09 05:58:00,
2013-01-08 23:04:00,41.9,27.8,30.15,East,89,0.0,0.0,57,0.00,,,0.00,Wunderground v.1.15,2013-01-09 06:04:00,
2013-01-08 23:10:00,41.6,27.9,30.15,East,89,0.0,0.0,58,0.00,,,0.00,Wunderground v.1.15,2013-01-09 06:10:00,
2013-01-08 23:16:00,41.3,28.0,30.15,ENE,64,0.0,0.0,59,0.00,,,0.00,Wunderground v.1.15,2013-01-09 06:16:00,
2013-01-08 23:22:00,41.3,28.4,30.15,East,91,1.0,1.0,60,0.00,,,0.00,Wunderground v.1.15,2013-01-09 06:22:00,
2013-01-08 23:28:00,41.3,28.4,30.16,East,97,0.0,1.0,60,0.00,,,0.00,Wunderground v.1.15,2013-01-09 06:28:00,
2013-01-08 23:34:00,41.3,28.0,30.16,East,97,0.0,0.0,59,0.00,,,0.00,Wunderground v.1.15,2013-01-09 06:34:00,
2013-01-08 23:40:00,41.1,27.9,30.16,East,97,0.0,0.0,59,0.00,,,0.00,Wunderground v.1.15,2013-01-09 06:40:00,
2013-01-08 23:46:00,40.7,28.3,30.16,East,97,0.0,0.0,61,0.00,,,0.00,Wunderground v.1.15,2013-01-09 06:46:00,
2013-01-08 23:52:00,40.3,28.7,30.16,East,97,0.0,0.0,63,0.00,,,0.00,Wunderground v.1.15,2013-01-09 06:52:00,
2013-01-08 23:58:00,40.0,28.0,30.17,East,97,0.0,0.0,62,0.00,,,0.00,Wunderground v.1.15,2013-01-09 06:58:00,